| time (UTC) | temp F | wind direction | speed MPH | gust MPH | rain 1hr in | rain 24hr in | rain mn in | humidity % | barometer mb |
| 20260504173103 | 65 | 196 | 7.0 | 14.0 | 0.00 | 0.01 | 0.01 | 3 | 1008.9 |
| 20260504172604 | 65 | 204 | 7.0 | 12.0 | 0.00 | 0.01 | 0.01 | 3 | 1009.0 |
| 20260504172104 | 64 | 202 | 7.0 | 13.0 | 0.00 | 0.01 | 0.01 | 3 | 1009.1 |
| 20260504171604 | 65 | 196 | 7.0 | 12.0 | 0.00 | 0.01 | 0.01 | 3 | 1009.0 |
| 20260504171104 | 64 | 207 | 9.0 | 15.0 | 0.00 | 0.01 | 0.01 | 3 | 1009.1 |
| 20260504170603 | 64 | 201 | 7.0 | 13.0 | 0.00 | 0.01 | 0.01 | 3 | 1009.2 |
| 20260504170104 | 64 | 195 | 8.0 | 15.0 | 0.00 | 0.01 | 0.01 | 3 | 1009.2 |
| 20260504160104 | 65 | 193 | 7.0 | 14.0 | 0.01 | 0.01 | 0.01 | 3 | 1009.6 |
| 20260504151104 | 67 | 187 | 10.0 | 16.0 | 0.00 | 0.00 | 0.00 | 3 | 1009.4 |
| 20260504150604 | 67 | 181 | 12.0 | 20.0 | 0.00 | 0.00 | 0.00 | 3 | 1009.3 |
| 20260504150105 | 67 | 177 | 12.0 | 24.0 | 0.00 | 0.00 | 0.00 | 3 | 1009.2 |
| 20260504141104 | 67 | 166 | 12.0 | 26.0 | 0.00 | 0.00 | 0.00 | 3 | 1009.4 |
| 20260504140604 | 67 | 176 | 12.0 | 26.0 | 0.00 | 0.00 | 0.00 | 3 | 1009.6 |
| 20260504140104 | 67 | 168 | 14.0 | 26.0 | 0.00 | 0.00 | 0.00 | 3 | 1009.4 |
| 20260504130604 | 68 | 199 | 7.0 | 15.0 | 0.00 | 0.00 | 0.00 | 3 | 1010.2 |
| 20260504130105 | 68 | 180 | 10.0 | 20.0 | 0.00 | 0.00 | 0.00 | 3 | 1010.2 |
| 20260504120105 | 68 | 197 | 8.0 | 12.0 | 0.00 | 0.00 | 0.00 | 3 | 1010.7 |
| 20260504110604 | 66 | 344 | 2.0 | 3.0 | 0.00 | 0.00 | 0.00 | 3 | 1011.5 |
| 20260504110105 | 66 | 342 | 3.0 | 3.0 | 0.00 | 0.00 | 0.00 | 3 | 1011.6 |
| 20260504100604 | 65 | 354 | 10.0 | 15.0 | 0.00 | 0.00 | 0.00 | 3 | 1011.4 |
| 20260504081604 | 66 | 186 | 6.0 | 12.0 | 0.00 | 0.00 | 0.00 | 3 | 1010.8 |
| 20260504081104 | 66 | 192 | 8.0 | 12.0 | 0.00 | 0.00 | 0.00 | 3 | 1010.8 |
| 20260504080604 | 65 | 196 | 9.0 | 15.0 | 0.00 | 0.00 | 0.00 | 3 | 1010.8 |
| 20260504080104 | 65 | 186 | 7.0 | 18.0 | 0.00 | 0.00 | 0.00 | 3 | 1010.8 |
| 20260504070105 | 62 | 208 | 5.0 | 16.0 | 0.00 | 0.00 | 0.00 | 3 | 1010.6 |
| 20260504060104 | 62 | 198 | 7.0 | 12.0 | 0.00 | 0.00 | 0.00 | 3 | 1010.7 |
| 20260504050603 | 62 | 178 | 7.0 | 12.0 | 0.00 | 0.00 | 0.00 | 3 | 1010.8 |
| 20260504050104 | 62 | 166 | 6.0 | 12.0 | 0.00 | 0.00 | 0.00 | 3 | 1010.8 |
| 20260504045604 | 62 | 192 | 7.0 | 14.0 | 0.00 | 0.00 | 0.00 | 3 | 1010.8 |
| 20260504045104 | 62 | 174 | 5.0 | 10.0 | 0.00 | 0.00 | 0.00 | 3 | 1010.8 |
| 20260504044604 | 62 | 168 | 7.0 | 12.0 | 0.00 | 0.00 | 0.00 | 3 | 1010.8 |
| 20260504043604 | 62 | 176 | 6.0 | 10.0 | 0.00 | 0.00 | 0.00 | 3 | 1010.9 |
| 20260504042104 | 62 | 202 | 5.0 | 10.0 | 0.00 | 0.00 | 0.00 | 3 | 1011.1 |
| 20260504041603 | 62 | 180 | 8.0 | 14.0 | 0.00 | 0.00 | 0.00 | 3 | 1011.0 |
| 20260504041103 | 62 | 193 | 7.0 | 12.0 | 0.00 | 0.00 | 0.00 | 3 | 1011.0 |
| 20260504040604 | 62 | 176 | 5.0 | 15.0 | 0.00 | 0.00 | 0.00 | 3 | 1011.1 |
| 20260504040104 | 62 | 181 | 5.0 | 12.0 | 0.00 | 0.00 | 0.00 | 3 | 1011.2 |
| 20260504035603 | 62 | 198 | 6.0 | 13.0 | 0.00 | 0.00 | 0.00 | 3 | 1011.3 |
| 20260504035103 | 61 | 182 | 6.0 | 10.0 | 0.00 | 0.00 | 0.00 | 3 | 1011.3 |
| 20260504034103 | 61 | 187 | 6.0 | 9.0 | 0.00 | 0.00 | 0.00 | 3 | 1011.4 |
| 20260504033604 | 61 | 167 | 6.0 | 12.0 | 0.00 | 0.00 | 0.00 | 3 | 1011.4 |
| 20260504033104 | 61 | 191 | 5.0 | 9.0 | 0.00 | 0.00 | 0.00 | 3 | 1011.6 |
| 20260504032104 | 61 | 172 | 4.0 | 9.0 | 0.00 | 0.00 | 0.00 | 3 | 1011.6 |
| 20260504031603 | 61 | 181 | 5.0 | 8.0 | 0.00 | 0.00 | 0.00 | 3 | 1011.6 |
| 20260504031104 | 61 | 169 | 6.0 | 10.0 | 0.00 | 0.00 | 0.00 | 3 | 1011.7 |
| 20260504030604 | 61 | 170 | 4.0 | 9.0 | 0.00 | 0.00 | 0.00 | 3 | 1011.8 |
| 20260504030105 | 61 | 185 | 5.0 | 9.0 | 0.00 | 0.00 | 0.00 | 3 | 1011.9 |
| 20260504025605 | 61 | 173 | 3.0 | 8.0 | 0.00 | 0.00 | 0.00 | 3 | 1011.9 |
| 20260504025104 | 62 | 171 | 6.0 | 9.0 | 0.00 | 0.00 | 0.00 | 3 | 1011.9 |
| 20260504023103 | 62 | 181 | 4.0 | 9.0 | 0.00 | 0.00 | 0.00 | 3 | 1012.0 |
| 20260504022604 | 62 | 164 | 3.0 | 8.0 | 0.00 | 0.00 | 0.00 | 3 | 1012.0 |
| 20260504022104 | 62 | 195 | 5.0 | 9.0 | 0.00 | 0.00 | 0.00 | 3 | 1012.1 |
| 20260504021604 | 62 | 159 | 5.0 | 10.0 | 0.00 | 0.00 | 0.00 | 3 | 1012.2 |
| 20260504021104 | 62 | 180 | 4.0 | 10.0 | 0.00 | 0.00 | 0.00 | 3 | 1012.2 |
| 20260504020603 | 62 | 174 | 4.0 | 7.0 | 0.00 | 0.00 | 0.00 | 3 | 1012.3 |
| 20260504020105 | 62 | 173 | 5.0 | 10.0 | 0.00 | 0.00 | 0.00 | 3 | 1012.2 |
| 20260504015604 | 62 | 175 | 3.0 | 8.0 | 0.00 | 0.00 | 0.00 | 3 | 1012.2 |
| 20260504015104 | 62 | 176 | 5.0 | 9.0 | 0.00 | 0.00 | 0.00 | 3 | 1012.2 |
| 20260504014604 | 62 | 176 | 3.0 | 6.0 | 0.00 | 0.00 | 0.00 | 3 | 1012.3 |
| 20260504014103 | 62 | 162 | 2.0 | 6.0 | 0.00 | 0.00 | 0.00 | 3 | 1012.2 |
| 20260504013604 | 62 | 180 | 3.0 | 7.0 | 0.00 | 0.00 | 0.00 | 3 | 1012.3 |
| 20260504013104 | 62 | 145 | 3.0 | 7.0 | 0.00 | 0.00 | 0.00 | 3 | 1012.3 |
| 20260504012604 | 62 | 161 | 3.0 | 6.0 | 0.00 | 0.00 | 0.00 | 3 | 1012.3 |
| 20260504012104 | 62 | 178 | 3.0 | 7.0 | 0.00 | 0.00 | 0.00 | 3 | 1012.4 |
| 20260504011604 | 62 | 185 | 4.0 | 7.0 | 0.00 | 0.00 | 0.00 | 3 | 1012.4 |
| 20260504010105 | 62 | 157 | 3.0 | 7.0 | 0.00 | 0.00 | 0.00 | 3 | 1012.5 |
| 20260504005604 | 62 | 174 | 5.0 | 9.0 | 0.00 | 0.00 | 0.00 | 3 | 1012.5 |
| 20260504005104 | 62 | 183 | 1.0 | 8.0 | 0.00 | 0.00 | 0.00 | 3 | 1012.6 |
| 20260504004605 | 62 | 197 | 4.0 | 8.0 | 0.00 | 0.00 | 0.00 | 3 | 1012.5 |
| 20260504004104 | 62 | 195 | 4.0 | 7.0 | 0.00 | 0.00 | 0.00 | 3 | 1012.6 |
| 20260504003603 | 62 | 188 | 3.0 | 6.0 | 0.00 | 0.00 | 0.00 | 3 | 1012.6 |
| 20260504002605 | 62 | 182 | 1.0 | 2.0 | 0.00 | 0.00 | 0.00 | 3 | 1012.7 |
| 20260504002103 | 62 | 199 | 0.0 | 2.0 | 0.00 | 0.00 | 0.00 | 3 | 1012.8 |
| 20260504001604 | 61 | 200 | 1.0 | 2.0 | 0.00 | 0.00 | 0.00 | 3 | 1012.8 |
| 20260504001103 | 61 | 200 | 0.0 | 0.0 | 0.00 | 0.00 | 0.00 | 3 | 1012.9 |
| 20260504000604 | 61 | 200 | 0.0 | 0.0 | 0.00 | 0.00 | 0.00 | 3 | 1012.9 |
| 20260503235603 | 61 | 201 | 1.0 | 3.0 | 0.00 | 0.00 | 0.00 | 3 | 1012.9 |
| 20260503235104 | 61 | 201 | 1.0 | 3.0 | 0.00 | 0.00 | 0.00 | 3 | 1012.9 |
| 20260503234604 | 61 | 192 | 1.0 | 3.0 | 0.00 | 0.00 | 0.00 | 3 | 1012.9 |
| 20260503234105 | 61 | 190 | 2.0 | 3.0 | 0.00 | 0.00 | 0.00 | 3 | 1013.0 |
| 20260503233604 | 61 | 205 | 2.0 | 3.0 | 0.00 | 0.00 | 0.00 | 3 | 1013.1 |
| 20260503233104 | 61 | 184 | 2.0 | 5.0 | 0.00 | 0.00 | 0.00 | 3 | 1013.0 |
| 20260503231604 | 61 | 176 | 4.0 | 7.0 | 0.00 | 0.00 | 0.00 | 3 | 1013.2 |
| 20260503231103 | 61 | 161 | 4.0 | 8.0 | 0.00 | 0.00 | 0.00 | 3 | 1013.3 |
| 20260503230104 | 61 | 175 | 3.0 | 7.0 | 0.00 | 0.00 | 0.00 | 3 | 1013.4 |
| 20260503225104 | 61 | 184 | 6.0 | 12.0 | 0.00 | 0.00 | 0.00 | 3 | 1013.6 |
| 20260503224603 | 61 | 187 | 5.0 | 9.0 | 0.00 | 0.00 | 0.00 | 3 | 1013.7 |
| 20260503224104 | 61 | 190 | 5.0 | 10.0 | 0.00 | 0.00 | 0.00 | 3 | 1013.7 |
| 20260503223604 | 61 | 214 | 5.0 | 9.0 | 0.00 | 0.00 | 0.00 | 3 | 1013.7 |
| 20260503223104 | 61 | 216 | 6.0 | 10.0 | 0.00 | 0.00 | 0.00 | 3 | 1013.7 |
| 20260503222104 | 61 | 210 | 3.0 | 7.0 | 0.00 | 0.00 | 0.00 | 3 | 1013.8 |
| 20260503221604 | 61 | 197 | 6.0 | 12.0 | 0.00 | 0.00 | 0.00 | 3 | 1013.8 |
| 20260503221105 | 61 | 193 | 5.0 | 9.0 | 0.00 | 0.00 | 0.00 | 3 | 1013.7 |
| 20260503220105 | 61 | 194 | 5.0 | 9.0 | 0.00 | 0.00 | 0.00 | 3 | 1013.9 |
| 20260503215604 | 61 | 177 | 4.0 | 12.0 | 0.00 | 0.00 | 0.00 | 3 | 1013.9 |
| 20260503215103 | 61 | 188 | 5.0 | 10.0 | 0.00 | 0.00 | 0.00 | 3 | 1013.9 |
| 20260503214604 | 61 | 182 | 8.0 | 12.0 | 0.00 | 0.00 | 0.00 | 3 | 1013.9 |
| 20260503214105 | 61 | 194 | 5.0 | 9.0 | 0.00 | 0.00 | 0.00 | 3 | 1013.9 |
| 20260503213604 | 61 | 178 | 5.0 | 9.0 | 0.00 | 0.00 | 0.00 | 3 | 1013.9 |
| 20260503213103 | 61 | 178 | 5.0 | 10.0 | 0.00 | 0.00 | 0.00 | 3 | 1013.9 |
| 20260503212604 | 61 | 174 | 5.0 | 9.0 | 0.00 | 0.00 | 0.00 | 3 | 1014.0 |
| 20260503212104 | 61 | 188 | 7.0 | 12.0 | 0.00 | 0.00 | 0.00 | 3 | 1014.0 |
| 20260503211603 | 61 | 201 | 6.0 | 14.0 | 0.00 | 0.00 | 0.00 | 3 | 1014.2 |
| 20260503211104 | 61 | 208 | 7.0 | 14.0 | 0.00 | 0.00 | 0.00 | 3 | 1014.3 |
| 20260503210603 | 61 | 185 | 7.0 | 13.0 | 0.00 | 0.00 | 0.00 | 3 | 1014.2 |
| 20260503210104 | 62 | 186 | 6.0 | 10.0 | 0.00 | 0.00 | 0.00 | 3 | 1014.3 |
| 20260503205604 | 62 | 172 | 8.0 | 15.0 | 0.00 | 0.00 | 0.00 | 3 | 1014.3 |
| 20260503205104 | 62 | 176 | 5.0 | 12.0 | 0.00 | 0.00 | 0.00 | 3 | 1014.3 |
| 20260503204104 | 61 | 203 | 6.0 | 16.0 | 0.00 | 0.00 | 0.00 | 3 | 1014.4 |
| 20260503203603 | 61 | 203 | 4.0 | 12.0 | 0.00 | 0.00 | 0.00 | 3 | 1014.5 |
| 20260503203104 | 61 | 196 | 7.0 | 12.0 | 0.00 | 0.00 | 0.00 | 3 | 1014.5 |
| 20260503202104 | 61 | 185 | 6.0 | 12.0 | 0.00 | 0.00 | 0.00 | 3 | 1014.4 |
| 20260503201604 | 61 | 178 | 6.0 | 12.0 | 0.00 | 0.00 | 0.00 | 3 | 1014.3 |
| 20260503201104 | 61 | 184 | 5.0 | 6.0 | 0.00 | 0.00 | 0.00 | 3 | 1014.2 |
| 20260503200604 | 61 | 174 | 4.0 | 8.0 | 0.00 | 0.00 | 0.00 | 3 | 1014.2 |
| 20260503200104 | 61 | 190 | 5.0 | 10.0 | 0.00 | 0.00 | 0.00 | 3 | 1014.2 |
| 20260503195603 | 61 | 197 | 5.0 | 12.0 | 0.00 | 0.00 | 0.00 | 3 | 1014.1 |
| 20260503195103 | 61 | 183 | 6.0 | 9.0 | 0.00 | 0.00 | 0.00 | 3 | 1014.0 |
| 20260503194603 | 61 | 179 | 7.0 | 13.0 | 0.00 | 0.00 | 0.00 | 3 | 1013.9 |
| 20260503194104 | 61 | 170 | 8.0 | 17.0 | 0.00 | 0.00 | 0.00 | 3 | 1013.8 |
| 20260503193604 | 61 | 179 | 8.0 | 15.0 | 0.00 | 0.00 | 0.00 | 3 | 1013.8 |
| 20260503192604 | 62 | 161 | 7.0 | 14.0 | 0.00 | 0.00 | 0.00 | 3 | 1013.6 |
| 20260503192104 | 62 | 165 | 6.0 | 12.0 | 0.00 | 0.00 | 0.00 | 3 | 1013.6 |
| 20260503191604 | 62 | 170 | 7.0 | 16.0 | 0.00 | 0.00 | 0.00 | 3 | 1013.6 |
| 20260503190604 | 62 | 170 | 9.0 | 17.0 | 0.00 | 0.00 | 0.00 | 3 | 1013.6 |
| 20260503190105 | 62 | 159 | 7.0 | 15.0 | 0.00 | 0.00 | 0.00 | 3 | 1013.6 |
| 20260503185604 | 62 | 187 | 10.0 | 20.0 | 0.00 | 0.00 | 0.00 | 3 | 1013.6 |
| 20260503184604 | 62 | 171 | 7.0 | 12.0 | 0.00 | 0.00 | 0.00 | 3 | 1013.4 |
| 20260503184104 | 62 | 174 | 6.0 | 12.0 | 0.00 | 0.00 | 0.00 | 3 | 1013.4 |
| 20260503183103 | 63 | 174 | 7.0 | 14.0 | 0.00 | 0.00 | 0.00 | 3 | 1013.4 |
| 20260503182605 | 63 | 174 | 7.0 | 16.0 | 0.00 | 0.00 | 0.00 | 3 | 1013.4 |
| 20260503181604 | 63 | 188 | 8.0 | 16.0 | 0.00 | 0.00 | 0.00 | 3 | 1013.4 |
| 20260503180603 | 63 | 184 | 7.0 | 20.0 | 0.00 | 0.00 | 0.00 | 3 | 1013.3 |
| 20260503180104 | 63 | 175 | 9.0 | 18.0 | 0.00 | 0.00 | 0.00 | 3 | 1013.4 |
| 20260503174104 | 63 | 183 | 6.0 | 15.0 | 0.00 | 0.00 | 0.00 | 3 | 1013.7 |
| 20260503173604 | 63 | 170 | 9.0 | 14.0 | 0.00 | 0.00 | 0.00 | 3 | 1013.6 |